Zurück zum Katalog

CZ-2D R/B

AktivSSO
NORAD 36597·ROCKET BODY·🇨🇳 China

Gestartet Jun 15, 2010 von Jiuquan Satellite Launch Center

Loading…

Nächste Überflüge (nächste 24 Stunden)

TLE

AktuellSource: Space-Track

Epoche: Sep 14, 2026, 13:31 UTC

1 36597U 10027B   26257.56387029  .00001862  00000-0  13955-3 0  9995
2 36597  97.9740 289.4210 0048451 341.7386  18.2096 15.03116921884306

Verfolge CZ-2D R/B in Echtzeit mit AllMySat

Download on the App Store